SCP
0 0 0 0 1 1 0 0 0 0 0 0 0 0 0 1 1 1 1 1 0 0 0 1 1 2 2 2 2 3 3 3 3 2 2 2 2 2 2 1 0 0 0 0
0 0 0 0 1 1 0 0 0 0 0 0 0 0 0 0 1 1 1 1 1 1 1 1 1 1 2 2 2 2 2 3 3 3 2 2 2 2 2 1 1 0 0 0
0 0 0 0 0 0 0 0 0 0 0 0 0 0 0 0 0 1 1 1 1 1 1 1 1 1 1 1 1 2 2 2 3 3 2 2 2 2 1 1 1 0 0 0
0 0 0 0 0 0 0 0 0 0 0 0 0 0 0 0 0 1 1 1 1 1 1 1 1 1 1 1 1 1 1 2 2 2 2 2 2 1 1 1 1 0 0 0
0 0 0 0 0 0 0 0 0 0 0 0 0 0 0 0 0 0 1 1 1 1 1 1 1 1 1 1 1 1 1 2 2 2 2 2 1 1 1 1 1 1 0 0
0 0 0 0 0 0 0 0 0 0 0 0 0 0 0 0 0 0 0 1 1 1 1 1 1 1 1 1 1 1 1 2 2 2 2 1 1 1 1 1 1 1 1 0
0 0 0 0 0 0 0 0 0 0 0 0 0 0 0 0 0 0 0 0 1 1 1 1 1 1 1 1 1 1 2 2 2 2 2 1 1 1 1 1 1 1 1 1
0 0 0 0 0 0 0 0 0 0 0 0 0 0 0 0 0 0 0 0 0 1 1 1 1 1 1 1 1 1 2 2 2 2 2 1 1 1 1 1 1 0 1 1
0 0 0 0 0 0 0 0 0 0 0 0 0 0 0 0 0 0 0 0 0 0 0 1 1 1 1 1 1 2 2 2 2 2 2 1 1 1 1 1 1 1 1 1
0 0 0 0 0 0 0 0 0 0 0 0 0 0 0 0 0 0 0 0 0 0 0 1 1 1 1 1 2 2 2 2 2 3 2 1 1 1 1 1 1 1 1 1
0 0 0 0 0 0 0 0 0 0 0 0 0 0 0 0 0 0 0 0 0 0 0 0 1 1 1 1 2 2 3 3 3 2 2 1 1 1 1 1 1 1 1 0
0 0 0 0 0 0 0 0 0 0 0 0 0 0 0 0 0 0 0 0 0 0 0 0 1 1 1 1 1 2 2 2 2 2 2 2 1 1 1 1 1 1 1 1
0 0 0 0 0 0 0 0 0 0 0 0 0 0 0 0 0 0 0 0 1 0 0 0 1 1 1 1 1 2 2 2 2 2 2 2 1 1 1 1 1 1 1 1
0 0 0 0 0 0 0 0 0 0 0 0 0 0 0 0 0 0 0 1 1 1 1 1 1 1 1 1 1 2 2 2 2 2 2 2 1 1 2 2 2 2 2 1
0 0 0 0 0 0 0 0 0 0 0 0 0 0 0 0 0 0 1 1 1 1 1 1 1 1 1 1 1 2 2 3 3 2 2 2 2 2 2 3 3 3 2 2
0 0 0 0 0 0 0 0 0 0 0 0 0 0 0 0 0 0 0 1 1 1 1 1 1 1 1 1 1 2 3 4 3 3 3 3 3 4 4 4 4 4 3 3
0 0 0 0 0 0 0 0 0 0 0 0 0 0 0 0 0 0 0 0 1 1 1 1 1 1 1 1 2 2 3 4 4 4 4 4 5 5 6 6 5 5 4 3
0 0 0 0 0 0 0 0 0 0 0 0 0 0 0 0 0 0 0 0 0 0 0 0 0 1 1 1 2 2 3 4 4 4 4 5 6 6 7 6 6 5 4 3
0 0 0 0 0 0 0 0 0 0 0 0 0 0 0 0 0 0 0 0 0 0 0 0 0 0 1 1 1 2 3 3 4 5 5 5 6 6 6 6 5 4 3 2
0 0 0 0 0 0 0 0 0 0 0 0 0 0 0 0 0 0 0 0 0 0 0 0 0 0 1 1 1 2 2 3 3 4 4 4 4 4 4 4 3 2 2 1
0 0 0 0 0 0 0 0 0 0 0 0 0 0 0 0 0 0 0 0 0 0 0 0 0 0 1 1 1 1 2 2 3 3 3 3 3 3 2 2 2 1 1 1
0 0 0 0 0 0 0 0 0 0 0 0 0 0 0 0 0 0 0 0 0 0 0 0 0 0 0 0 1 1 1 1 1 1 1 2 2 2 1 1 1 1 1 1
0 0 0 0 0 0 0 0 0 0 0 0 0 0 0 0 0 0 0 0 0 0 0 0 0 0 0 0 0 1 1 0 0 0 1 2 2 1 1 1 1 1 1 1
0 0 0 0 0 0 0 0 0 0 0 0 0 0 0 0 0 0 0 0 0 0 0 0 0 0 0 0 0 0 0 0 0 0 1 2 2 1 1 1 1 1 1 1
0 0 0 0 0 0 0 0 0 0 0 0 0 0 0 0 0 0 0 0 0 0 0 0 0 0 0 0 0 0 0 0 0 0 1 2 2 1 1 1 1 1 1 1
0 0 0 0 0 0 0 0 0 0 0 0 0 0 0 0 0 0 0 0 0 0 0 0 0 0 0 0 0 0 0 0 0 1 1 2 2 1 1 1 1 1 1 1
Wind_Speed
3 4 3 3 2 1 2 3 2 1 1 3 4 4 4 5 5 5 5 5 5 4 4 4 4 4 4 4 4 4 4 4 3 3 2 2 2 2 2 2 3 3 3 3
5 3 2 2 3 3 4 4 2 2 1 3 3 5 4 5 6 5 5 6 6 5 5 4 4 4 4 3 3 3 3 4 3 2 2 1 2 2 2 2 3 3 3 3
4 1 3 4 5 5 4 4 3 2 2 4 4 6 6 5 5 5 5 5 5 5 5 5 5 5 4 4 3 3 3 3 3 3 2 2 2 2 2 2 2 2 3 3
3 2 4 5 5 6 4 2 4 5 6 4 5 4 5 5 6 5 5 5 6 6 6 5 5 5 5 4 4 4 4 4 4 4 3 3 2 2 2 1 2 2 3 3
3 3 4 5 4 5 2 1 4 6 6 6 6 6 3 5 5 5 5 5 5 6 6 6 5 5 5 5 4 4 4 4 4 4 3 3 3 2 2 2 2 2 2 2
2 2 3 3 2 2 3 4 4 5 7 7 5 7 3 3 4 4 4 5 5 6 5 5 5 5 4 4 4 4 4 4 3 4 4 3 3 3 3 2 2 1 1 1
4 4 2 3 4 5 5 6 4 5 6 4 2 6 3 1 1 3 4 4 5 5 5 4 4 4 5 5 5 5 5 4 4 4 4 4 3 3 3 2 2 1 1 1
4 4 3 2 4 4 5 7 5 4 4 2 4 6 1 2 1 0 2 3 4 5 5 5 4 4 4 4 5 5 5 5 5 4 4 4 4 2 2 2 1 1 1 1
4 2 2 1 3 5 6 5 4 6 5 5 4 4 3 3 2 2 2 3 4 5 5 5 4 4 4 4 4 5 6 5 5 4 4 4 4 3 3 3 2 2 1 1
4 4 1 1 4 2 5 3 5 6 5 6 5 5 2 4 3 2 2 3 4 4 5 5 4 4 3 4 4 4 5 5 5 4 3 3 4 4 3 3 2 2 2 2
4 5 3 4 5 4 5 6 6 5 5 6 5 1 2 1 1 2 2 3 3 4 4 4 4 4 4 3 4 4 4 4 4 4 4 4 4 4 4 3 2 2 2 2
2 5 5 4 1 3 5 5 6 6 6 6 7 2 4 1 1 1 1 2 3 3 3 4 4 4 4 4 3 4 4 4 4 4 4 4 4 4 4 3 3 3 3 3
2 5 5 4 5 4 5 4 6 7 7 8 9 3 4 1 1 1 1 1 2 3 3 3 4 4 4 4 4 4 3 4 4 4 4 4 4 4 4 4 3 3 3 3
4 6 6 7 5 3 5 5 6 8 8 9 10 8 4 3 3 2 1 1 1 2 3 3 3 4 4 4 4 4 4 3 3 4 4 4 4 4 3 4 4 4 4 4
5 6 7 8 7 6 7 7 8 10 10 10 9 8 7 5 5 3 2 1 2 2 3 3 3 3 3 4 4 4 4 4 4 4 4 4 4 3 3 3 4 4 3 3
4 6 6 7 5 6 7 8 9 10 10 11 10 9 6 5 4 3 3 2 2 2 3 3 3 2 3 3 3 4 4 4 4 4 4 3 4 3 3 3 4 3 3 3
4 5 6 6 4 7 7 6 6 6 6 8 9 6 4 4 4 4 4 3 3 3 2 3 3 3 2 2 3 4 4 4 4 4 4 4 4 4 3 3 3 4 4 4
6 6 5 5 5 7 0 1 3 5 4 5 5 5 5 5 4 4 3 2 2 3 3 3 3 2 2 2 2 2 3 4 5 4 4 4 4 4 4 4 3 4 4 4
6 6 5 5 7 6 3 2 3 5 4 3 4 4 3 3 4 2 2 3 3 3 3 3 3 3 2 2 2 2 3 4 4 4 4 4 4 4 4 4 4 4 4 4
3 5 6 5 7 6 2 2 3 5 4 2 2 3 2 2 5 2 2 3 3 3 2 2 2 2 2 2 2 3 3 4 4 3 4 4 4 4 4 4 4 3 3 4
3 4 6 8 8 4 2 2 2 4 2 2 3 4 4 5 6 4 3 3 3 2 2 2 2 2 2 2 3 3 3 3 3 3 3 3 3 4 4 3 3 3 3 4
5 4 5 5 7 4 2 2 2 3 4 3 4 4 5 5 5 5 4 3 2 2 2 2 2 2 2 2 3 3 3 2 2 2 3 3 3 3 3 3 3 3 3 4
4 4 3 4 3 2 2 0 2 3 4 4 4 5 5 5 5 5 4 3 2 2 2 2 2 2 2 3 3 3 2 2 2 3 2 3 3 3 3 3 3 3 3 3
3 2 4 5 5 4 3 2 3 3 4 5 5 5 5 5 6 5 4 3 3 3 2 2 2 2 2 2 3 2 2 2 3 3 3 2 3 2 2 2 2 2 2 2
3 3 5 7 5 5 4 4 4 4 4 4 5 5 5 5 5 5 4 3 3 2 2 2 2 3 2 2 2 2 2 3 3 3 3 3 2 2 2 2 1 2 2 2
5 6 6 5 4 5 5 4 4 4 4 5 5 5 5 5 5 5 4 3 3 2 2 2 2 2 2 1 2 2 2 3 3 3 2 2 2 2 2 2 1 1 1 1
Wind_Direction
169 198 191 180 193 260 227 222 209 153 162 214 224 217 198 193 199 204 198 191 190 186 165 158 158 163 161 156 156 155 164 161 158 152 154 142 128 110 94 80 68 62 53 49
185 197 178 172 182 201 218 227 212 167 174 235 232 240 216 208 213 217 215 204 197 184 170 163 160 161 167 164 165 163 168 168 168 158 154 143 125 110 88 77 69 57 51 46
219 151 167 192 200 212 222 245 240 225 200 220 241 231 211 201 211 214 223 219 206 195 185 172 171 169 169 171 170 175 173 164 166 165 157 146 143 149 123 108 86 61 59 55
223 186 197 215 223 244 234 237 233 222 232 232 246 259 214 201 203 210 214 209 205 194 190 180 177 176 175 177 174 175 172 164 163 165 166 164 161 143 124 112 108 98 73 63
208 202 216 228 240 249 261 202 218 229 248 253 233 255 209 187 214 209 206 203 199 192 189 182 182 182 180 176 174 175 173 169 170 171 162 177 167 148 133 131 126 109 82 64
234 210 252 248 223 228 175 185 196 216 238 245 240 249 241 193 232 216 198 195 191 184 181 180 179 175 175 175 174 176 177 174 177 182 177 179 169 160 153 161 146 131 111 84
212 191 180 220 202 180 215 235 231 219 220 238 198 247 256 115 243 235 217 199 186 178 174 174 173 169 173 178 182 182 181 182 183 187 185 182 185 183 179 180 170 161 136 118
240 204 176 217 249 239 225 251 266 273 268 259 207 241 163 123 113 254 199 176 171 172 172 172 173 172 176 181 187 190 188 189 189 194 198 194 189 194 188 194 190 185 164 142
272 242 140 233 259 252 226 234 284 278 269 265 230 218 197 167 159 160 161 167 170 174 173 174 176 176 178 182 190 195 193 191 193 197 201 200 194 190 191 192 189 186 177 162
286 270 213 205 204 211 261 223 227 249 263 260 244 239 209 174 189 175 182 184 179 179 180 179 180 182 188 185 185 194 199 198 195 195 192 193 193 186 191 189 185 182 181 176
280 265 240 224 235 235 208 216 234 250 264 271 267 234 71 28 214 208 204 199 191 188 189 184 182 185 188 183 184 188 196 196 192 193 191 193 191 185 187 189 189 194 192 189
272 274 262 251 241 278 253 244 241 254 248 252 272 269 103 61 13 233 228 191 190 189 188 187 183 186 185 184 188 187 192 195 193 194 194 196 193 186 189 190 192 198 199 201
245 260 265 218 185 200 234 242 247 260 266 253 256 246 125 42 348 267 251 193 178 185 188 188 188 192 193 193 195 191 193 195 190 188 190 193 196 192 193 192 194 201 203 204
264 255 266 280 306 290 260 252 245 247 254 258 257 273 271 293 290 280 257 244 204 192 193 196 201 202 203 202 198 199 196 192 192 188 186 186 191 192 193 194 199 203 206 210
254 262 269 278 283 268 267 267 254 247 259 270 280 279 289 304 300 282 264 253 221 209 210 215 212 212 207 207 204 205 201 194 193 194 192 188 187 190 191 196 204 205 208 215
251 267 270 266 262 250 260 270 259 254 256 262 272 277 305 305 293 283 271 254 239 234 231 231 228 226 221 216 211 206 207 201 199 201 198 189 190 188 190 199 202 198 206 218
235 257 266 267 266 256 251 260 256 254 256 256 266 287 307 295 295 294 288 260 250 256 253 252 247 239 240 234 225 216 213 203 204 203 194 196 196 191 197 200 201 203 210 216
244 247 260 269 260 246 17 9 273 265 271 269 278 293 292 297 301 298 292 282 272 264 260 261 264 260 256 249 239 221 213 209 208 203 204 198 200 199 202 205 209 215 217 217
241 239 244 251 260 263 253 262 261 263 267 303 288 302 316 319 280 263 291 296 286 275 266 258 258 259 251 241 233 215 206 210 210 208 215 205 202 202 203 206 213 220 222 223
212 233 242 241 255 257 308 359 290 260 244 338 292 296 310 297 284 314 320 286 281 282 273 263 255 249 234 234 224 213 209 210 214 214 218 209 204 203 205 207 213 222 226 228
201 217 232 243 251 258 338 345 214 238 334 4 298 291 282 278 304 324 302 282 276 272 271 261 247 240 234 226 217 218 216 222 226 222 214 204 201 205 207 211 217 219 221 225
231 224 227 239 245 250 71 157 221 325 355 331 317 316 301 294 299 296 290 282 276 274 267 260 242 238 230 216 218 217 221 229 218 209 204 198 195 196 196 203 215 214 210 216
232 252 258 247 267 353 124 232 338 332 312 314 311 314 308 300 291 286 283 280 271 265 252 257 250 242 223 211 219 218 211 208 202 199 200 194 188 192 194 196 203 204 205 212
218 249 242 248 255 270 271 280 299 299 299 307 307 306 300 296 296 291 282 274 268 257 251 257 247 240 238 224 224 221 195 191 194 195 193 189 186 185 187 195 199 201 206 214
251 215 240 249 266 279 267 277 287 293 299 305 308 304 298 293 290 286 283 277 269 260 254 257 256 246 235 224 214 211 196 197 198 197 190 182 180 181 186 187 203 215 217 241
230 229 242 256 266 270 279 298 297 290 292 296 300 302 300 290 284 281 276 273 266 256 260 268 273 276 266 233 211 199 198 210 206 195 191 188 184 187 190 187 178 63 229 154